Wind_Speed
16 13 9 16 18 13 13 6 7 6 6 4 5 2 5 5 7 10 3 6 8 9 7 3 1 2 1 6 18 12 13 12 12 13 14 16 15 17 13 11 12 10 10 9
13 9 20 23 21 18 5 4 8 7 4 3 4 8 7 7 8 6 4 7 9 10 9 7 3 2 2 5 12 14 16 13 10 12 14 15 15 14 13 13 14 11 9 7
13 5 18 16 17 12 8 7 7 14 8 8 10 6 7 3 6 8 7 8 7 7 6 6 7 4 3 4 10 15 17 15 12 15 16 16 13 13 13 14 13 10 11 7
19 18 16 16 16 15 6 17 16 12 11 12 7 21 13 12 11 7 6 6 2 8 8 10 8 6 3 5 7 10 16 15 17 15 16 15 14 14 13 13 14 13 11 11
15 21 14 15 15 15 9 20 16 17 13 13 18 9 9 25 24 14 7 7 5 6 8 12 8 9 6 6 7 11 11 10 13 18 17 15 15 14 15 14 12 12 11 9
17 19 18 14 16 21 25 14 13 12 8 11 15 10 17 9 6 19 16 10 9 9 5 7 7 9 11 10 10 11 13 13 11 15 17 15 15 14 15 15 15 11 9 7
8 10 15 20 16 18 19 6 2 8 8 12 14 15 13 27 24 20 16 15 12 9 9 7 4 6 7 11 13 13 14 16 16 16 19 17 17 17 15 13 12 9 9 8
5 7 10 14 15 5 8 12 12 5 6 9 5 14 13 23 27 17 17 16 17 17 14 11 8 7 9 12 15 17 17 17 18 18 18 17 17 18 17 16 15 17 12 9
8 7 12 12 14 15 8 12 13 12 12 13 13 17 18 18 23 19 18 18 17 18 17 16 15 14 13 13 14 16 20 20 20 19 19 18 18 18 17 16 18 6 11 10
8 10 13 11 9 9 15 15 8 6 4 8 10 12 15 20 21 12 14 18 20 17 18 18 17 18 18 18 15 16 21 23 23 23 20 18 19 19 20 19 20 17 14 14
8 9 12 16 10 5 9 10 13 12 14 12 9 13 17 23 21 17 15 21 23 22 19 20 20 19 20 19 19 20 25 27 27 25 24 23 20 20 21 22 20 19 16 15
10 7 10 11 15 12 17 15 14 14 13 11 14 17 30 32 30 26 25 24 25 24 23 21 22 21 21 19 19 20 21 24 32 29 27 26 25 24 24 24 24 22 17 17
10 10 7 13 16 19 12 14 17 14 16 19 18 19 30 34 35 35 29 28 26 27 27 25 24 24 23 22 21 23 21 16 29 29 28 28 27 26 25 26 25 22 20 20
16 13 14 14 18 17 8 10 16 18 16 16 16 18 25 9 23 38 29 31 31 30 31 30 27 28 26 24 23 24 24 22 24 28 28 29 28 28 26 26 26 25 23 22
18 17 16 19 20 26 27 22 18 19 22 24 22 32 37 37 40 43 33 29 32 34 33 33 32 30 29 27 27 27 27 27 25 25 28 27 29 28 27 27 28 27 26 25
16 17 21 17 18 22 20 21 26 23 23 26 25 26 28 34 36 32 33 33 34 35 35 36 34 33 32 30 28 29 27 30 29 30 30 29 28 26 26 27 30 31 29 28
17 16 16 17 16 21 19 17 20 24 23 23 24 22 24 34 26 29 31 31 30 33 35 35 35 35 33 32 30 30 32 29 32 31 35 34 32 32 29 29 32 32 30 32
25 21 17 16 21 23 17 21 29 28 26 28 28 31 29 29 28 29 31 30 28 29 30 33 34 35 34 33 33 30 34 31 32 33 29 34 31 35 44 31 34 36 34 34
20 25 19 20 19 19 20 19 20 22 23 28 27 30 28 27 26 28 25 25 25 24 25 28 29 29 30 32 34 32 32 32 32 35 33 35 38 40 40 35 37 31 31 36
23 27 25 21 20 19 16 29 32 28 27 29 24 25 24 23 23 24 19 22 20 22 23 25 26 28 29 30 32 30 30 31 33 34 33 37 32 41 37 38 37 35 31 29
28 25 25 21 21 18 22 36 31 29 26 28 24 23 21 21 19 19 18 19 18 19 23 27 27 27 27 28 30 29 33 33 32 34 37 33 32 40 37 36 37 32 33 32
31 26 21 19 22 23 33 32 31 29 29 25 21 16 15 14 15 16 19 22 22 20 21 26 27 24 26 27 29 29 30 31 33 34 33 33 30 30 28 33 37 38 35 36
31 26 19 22 27 29 26 32 31 26 24 20 14 14 15 15 14 12 16 22 24 22 21 23 25 25 27 27 28 25 30 28 27 30 27 32 27 26 29 41 42 43 39 36
30 34 28 28 28 34 34 30 25 23 19 15 12 12 13 13 12 15 20 18 17 20 21 20 20 24 23 23 21 29 30 32 33 32 34 26 22 34 30 37 38 34 36 34
20 30 28 31 31 27 23 22 20 18 16 13 11 10 11 13 11 16 30 24 22 22 19 18 20 23 24 24 27 28 22 22 40 20 18 28 23 25 35 39 40 33 32 37
41 21 21 23 26 21 22 20 17 15 14 12 13 9 8 7 11 20 6 13 17 17 15 17 16 21 19 23 24 22 22 18 15 15 18 17 21 28 18 19 21 19 21 30
Wind_Direction
213 209 214 190 247 178 147 220 253 266 263 258 279 275 296 314 286 294 325 284 299 282 262 270 318 73 114 187 182 183 161 171 190 184 190 204 201 184 184 177 186 182 189 204
211 199 199 213 232 234 184 130 274 257 232 159 313 326 334 322 302 311 295 324 274 290 276 251 242 209 160 189 194 194 177 170 178 183 167 166 175 180 182 187 187 202 200 221
188 245 226 212 220 225 229 223 251 227 229 282 304 279 291 308 304 307 311 321 260 279 274 274 273 218 200 186 199 199 189 177 177 184 177 176 172 176 188 197 201 198 203 208
205 208 221 211 213 208 231 241 229 218 219 204 252 259 172 319 309 297 302 324 302 255 272 286 262 259 217 211 196 198 205 202 190 184 186 189 191 194 203 202 211 203 211 226
221 229 235 219 210 211 212 233 224 229 236 295 303 317 322 312 305 274 275 282 309 266 249 248 272 255 250 239 221 203 201 207 198 193 193 195 201 204 202 202 205 214 219 226
207 229 222 212 218 218 217 236 243 269 262 278 252 268 267 231 204 279 284 271 282 304 299 226 244 254 247 236 229 220 212 210 205 197 198 197 203 208 205 206 216 218 226 238
223 222 217 219 226 228 229 212 300 260 219 244 251 271 266 272 284 269 278 292 289 276 287 298 209 236 262 266 242 229 226 215 213 207 206 209 205 207 207 208 214 210 227 228
223 267 241 233 193 264 238 182 225 258 252 284 248 287 271 235 262 280 270 272 283 285 277 268 254 239 238 233 252 243 228 225 221 217 210 210 201 206 205 207 205 203 205 231
234 204 236 218 212 210 202 225 209 240 255 251 256 279 293 285 270 269 273 271 270 276 274 268 256 248 243 243 257 246 240 227 224 227 222 217 209 208 209 205 222 237 204 215
231 212 263 237 222 216 202 217 229 265 286 256 261 266 270 266 281 268 263 265 268 261 260 264 257 252 249 244 236 255 243 243 233 224 223 220 220 218 211 214 212 211 215 222
192 180 258 281 260 214 260 228 212 213 226 238 253 266 237 255 271 272 260 262 260 260 254 257 261 254 251 242 240 236 241 248 235 230 226 226 224 226 224 222 214 218 220 217
220 203 254 255 265 286 245 212 222 241 266 277 248 257 267 269 273 267 266 258 257 257 258 253 255 255 254 246 233 237 240 243 227 228 228 232 231 230 229 230 226 222 220 225
238 228 218 254 273 278 262 250 249 238 248 246 253 282 289 283 281 275 261 259 254 255 256 254 253 255 253 251 242 236 240 246 220 220 226 227 233 231 233 232 235 232 225 229
234 227 220 242 271 272 273 244 261 239 236 245 253 258 290 276 288 280 261 255 256 254 253 254 249 253 254 250 247 239 235 235 239 234 229 229 231 233 233 232 236 238 237 234
230 230 235 247 242 254 247 237 251 254 251 249 244 237 239 242 251 263 278 268 259 254 251 251 251 246 251 251 247 247 242 232 245 237 230 229 230 234 236 234 237 241 243 243
230 226 229 230 252 276 260 256 256 261 264 269 270 269 272 262 269 273 271 268 262 255 251 248 249 248 244 247 247 246 244 236 234 240 233 232 225 232 238 242 243 244 246 248
238 240 237 249 257 243 263 284 287 276 261 268 272 272 264 277 278 272 271 269 266 256 250 248 247 247 246 243 246 248 248 246 238 240 231 233 236 237 237 247 246 249 249 249
265 246 226 241 263 259 275 252 256 262 272 276 275 275 279 277 274 273 273 276 268 259 256 252 249 248 248 240 240 246 245 249 247 237 238 235 242 233 244 236 244 244 248 250
224 249 241 236 253 269 280 273 281 275 279 287 285 279 278 275 274 276 287 278 270 260 254 251 247 246 245 238 237 244 244 248 245 240 238 239 243 237 237 233 242 240 249 249
223 236 234 244 246 257 248 274 264 282 298 282 283 278 280 270 273 285 286 282 272 262 254 246 247 247 241 241 232 244 243 241 240 236 238 237 249 239 244 239 242 240 250 260
235 235 238 243 249 259 264 264 275 284 278 288 286 286 274 277 278 286 285 284 276 270 253 244 253 253 239 237 231 247 241 239 245 238 237 235 226 238 225 238 233 240 251 254
243 239 241 246 249 250 258 267 275 279 285 284 286 282 279 275 277 283 278 278 269 266 258 247 254 246 241 239 239 246 236 242 243 239 241 240 234 252 239 238 240 242 248 252
236 232 230 229 243 253 256 275 288 282 281 286 278 281 273 266 288 270 278 268 262 251 254 247 249 247 245 235 236 235 232 242 242 239 233 240 232 233 241 234 241 243 249 254
215 229 225 233 242 251 268 281 276 274 269 279 274 277 274 251 281 275 297 272 249 246 246 244 243 242 244 231 243 235 243 238 241 248 248 235 218 226 227 232 239 246 241 246
200 230 232 237 251 264 272 275 281 274 261 265 261 277 257 248 265 276 295 272 237 236 240 238 242 245 236 224 230 227 234 241 231 226 235 225 231 238 231 226 234 227 233 248
220 193 222 237 259 262 264 270 282 271 252 261 258 273 264 244 252 318 328 162 207 234 231 222 253 207 189 207 213 215 211 219 210 188 212 197 203 202 204 208 216 210 225 230
Height
5869 5873 5881 5883 5875 5876 5877 5884 5880 5881 5881 5882 5882 5883 5882 5883 5883 5883 5883 5884 5884 5884 5884 5883 5883 5883 5883 5884 5885 5887 5889 5891 5894 5895 5898 5901 5904 5908 5910 5912 5913 5914 5914 5914
5870 5873 5878 5875 5877 5877 5880 5884 5880 5881 5881 5883 5883 5882 5883 5883 5883 5884 5884 5883 5883 5883 5884 5885 5884 5884 5885 5885 5887 5888 5890 5892 5894 5896 5898 5901 5904 5908 5909 5912 5913 5914 5915 5914
5869 5877 5873 5875 5875 5876 5880 5881 5880 5880 5881 5882 5882 5880 5880 5882 5883 5883 5884 5883 5883 5883 5884 5885 5885 5886 5886 5886 5888 5890 5891 5892 5895 5896 5899 5901 5904 5908 5910 5912 5914 5914 5915 5915
5867 5870 5870 5872 5874 5876 5881 5877 5879 5881 5882 5878 5879 5878 5874 5881 5882 5883 5883 5883 5883 5884 5884 5884 5884 5886 5887 5888 5889 5891 5893 5894 5895 5898 5899 5902 5905 5908 5909 5911 5913 5914 5914 5915
5867 5866 5868 5870 5872 5875 5880 5875 5879 5880 5882 5887 5884 5885 5877 5881 5879 5880 5881 5883 5883 5883 5883 5885 5884 5886 5887 5889 5889 5891 5893 5894 5895 5896 5900 5902 5905 5907 5908 5910 5912 5913 5914 5914
5862 5863 5865 5868 5869 5870 5872 5877 5879 5881 5884 5889 5889 5888 5885 5879 5880 5879 5877 5880 5881 5881 5882 5882 5883 5884 5885 5888 5890 5891 5892 5894 5895 5897 5899 5902 5904 5905 5908 5909 5910 5912 5913 5913
5862 5862 5863 5865 5868 5870 5872 5879 5886 5887 5887 5887 5883 5886 5884 5880 5876 5878 5878 5877 5878 5880 5880 5880 5882 5884 5884 5886 5889 5890 5892 5893 5895 5896 5898 5900 5902 5904 5906 5908 5910 5910 5911 5912
5865 5865 5864 5864 5867 5874 5871 5879 5884 5885 5889 5887 5879 5885 5884 5878 5874 5875 5875 5876 5875 5876 5878 5879 5881 5883 5884 5884 5886 5888 5890 5892 5893 5895 5897 5898 5901 5902 5905 5907 5906 5903 5909 5912
5869 5869 5863 5863 5865 5868 5872 5876 5880 5881 5884 5885 5886 5882 5877 5873 5871 5871 5871 5872 5873 5873 5873 5875 5877 5879 5881 5882 5883 5885 5886 5889 5891 5893 5895 5896 5898 5901 5903 5906 5904 5899 5906 5915
5866 5868 5862 5861 5863 5865 5866 5873 5876 5878 5881 5881 5882 5879 5878 5872 5870 5870 5868 5868 5868 5870 5870 5870 5872 5873 5875 5877 5879 5881 5883 5885 5887 5889 5892 5894 5896 5898 5900 5903 5905 5906 5907 5908
5861 5864 5863 5862 5862 5867 5865 5867 5869 5874 5877 5878 5880 5878 5871 5869 5870 5867 5865 5864 5865 5865 5867 5867 5867 5868 5870 5871 5874 5876 5878 5880 5882 5885 5888 5890 5892 5894 5897 5899 5902 5903 5904 5905
5857 5863 5864 5863 5860 5863 5864 5864 5868 5872 5873 5874 5874 5877 5866 5864 5865 5864 5861 5860 5860 5861 5862 5863 5863 5864 5865 5867 5868 5870 5872 5874 5877 5880 5883 5885 5888 5890 5892 5895 5898 5900 5902 5903
5855 5855 5862 5864 5861 5855 5855 5858 5860 5864 5869 5868 5868 5869 5860 5858 5857 5855 5856 5854 5855 5855 5856 5857 5858 5859 5860 5861 5864 5864 5866 5868 5872 5874 5877 5880 5883 5885 5887 5890 5893 5897 5899 5900
5848 5852 5857 5860 5851 5851 5852 5854 5853 5855 5860 5863 5864 5860 5850 5853 5847 5844 5846 5847 5848 5849 5849 5850 5852 5853 5854 5856 5858 5859 5860 5862 5866 5868 5872 5875 5878 5881 5883 5886 5889 5892 5895 5897
5842 5845 5850 5851 5852 5847 5846 5849 5850 5848 5848 5849 5851 5849 5848 5846 5841 5837 5838 5840 5840 5841 5842 5843 5845 5847 5848 5850 5852 5854 5855 5857 5860 5862 5866 5870 5873 5876 5879 5882 5885 5887 5889 5892
5837 5839 5841 5842 5845 5841 5840 5841 5841 5841 5841 5840 5839 5838 5836 5833 5831 5831 5829 5829 5830 5832 5833 5835 5837 5840 5842 5843 5845 5847 5850 5851 5853 5857 5859 5863 5867 5870 5874 5876 5879 5881 5884 5886
5831 5835 5836 5839 5839 5837 5838 5838 5836 5834 5834 5833 5832 5832 5829 5823 5824 5821 5820 5820 5820 5822 5824 5826 5829 5831 5834 5836 5838 5840 5842 5845 5846 5849 5852 5856 5860 5863 5866 5869 5872 5875 5878 5880
5827 5828 5831 5834 5830 5832 5835 5830 5827 5827 5826 5824 5823 5821 5820 5818 5816 5814 5812 5812 5812 5813 5816 5818 5820 5823 5826 5829 5830 5832 5834 5837 5838 5840 5844 5848 5852 5855 5847 5860 5865 5867 5870 5872
5824 5822 5826 5827 5828 5830 5829 5824 5822 5818 5819 5816 5815 5813 5812 5811 5809 5806 5807 5804 5805 5807 5807 5809 5812 5815 5817 5820 5823 5824 5826 5829 5830 5832 5835 5840 5843 5847 5850 5852 5857 5859 5862 5865
5816 5817 5819 5821 5821 5823 5824 5813 5813 5813 5812 5807 5808 5806 5805 5804 5802 5800 5801 5799 5799 5800 5802 5804 5806 5807 5810 5813 5815 5817 5819 5822 5823 5826 5828 5831 5835 5838 5841 5845 5849 5852 5855 5857
5805 5808 5811 5814 5814 5817 5814 5807 5809 5809 5807 5802 5802 5800 5799 5798 5797 5796 5796 5794 5795 5794 5796 5798 5799 5801 5803 5805 5808 5810 5811 5814 5816 5817 5820 5821 5825 5825 5830 5838 5842 5845 5846 5849
5797 5800 5804 5808 5809 5811 5801 5803 5803 5801 5797 5796 5795 5794 5793 5792 5792 5791 5790 5789 5789 5788 5789 5791 5793 5794 5796 5799 5801 5802 5804 5806 5807 5809 5812 5816 5817 5820 5824 5829 5832 5835 5837 5841
5791 5794 5800 5801 5796 5799 5797 5796 5794 5793 5791 5790 5789 5789 5788 5788 5787 5786 5784 5782 5782 5781 5782 5784 5786 5788 5789 5792 5795 5796 5798 5800 5801 5803 5806 5809 5814 5815 5817 5821 5824 5826 5829 5831
5778 5783 5789 5791 5793 5790 5791 5789 5788 5787 5786 5786 5785 5785 5784 5783 5782 5780 5778 5776 5774 5775 5775 5778 5781 5782 5783 5787 5790 5793 5793 5793 5794 5796 5799 5802 5805 5808 5810 5814 5814 5817 5820 5822
5763 5774 5781 5783 5782 5784 5785 5784 5783 5782 5782 5782 5782 5781 5780 5780 5778 5775 5770 5764 5766 5768 5771 5774 5776 5776 5779 5782 5785 5788 5789 5790 5790 5792 5792 5797 5800 5802 5804 5805 5808 5811 5813 5816
5764 5766 5775 5778 5777 5779 5778 5780 5779 5778 5778 5779 5779 5778 5777 5776 5775 5770 5760 5758 5757 5765 5766 5768 5771 5771 5774 5777 5780 5784 5786 5786 5787 5786 5791 5792 5795 5796 5799 5801 5803 5802 5807 5811